When you browse on this site, cookies collect data to enhance your experience and personalize the content and advertising you see.
Visit our Privacy Policy to learn more. By continuing to use the site, you agree to this use of cookies and data.
  • In Romania
  • List of Countries
  • For 7 days
  • Water Temperature
  • Weather Map
  • Weather Widgets
  • user-avatar
    Login

    Hourly Weather Edinburgh

    Today, 22 February, Saturday

    Time Temperature Precipitation Wind Pressure Humidity
    00:00 +7°C° 0 mm 12 mps 743 mmHg 85%
    01:00 +7°C° 0.5 mm 12 mps 743 mmHg 80%
    02:00 +6°C° 0.5 mm 11 mps 743 mmHg 76%
    03:00 +4°C° 0.5 mm 11 mps 743 mmHg 72%
    04:00 +3°C° 0.2 mm 11 mps 744 mmHg 75%
    05:00 +2°C° 0.2 mm 11 mps 745 mmHg 78%
    06:00 +1°C° 0.2 mm 11 mps 746 mmHg 80%
    07:00 +1°C° 0.4 mm 11 mps 747 mmHg 81%
    08:00 -1°C° 0.4 mm 11 mps 747 mmHg 81%
    09:00 -1°C° 0.4 mm 11 mps 747 mmHg 82%
    10:00 +1°C° 0.3 mm 11 mps 748 mmHg 76%
    11:00 +1°C° 0.3 mm 11 mps 749 mmHg 70%
    12:00 +2°C° 0.3 mm 12 mps 750 mmHg 65%
    13:00 0°C° 0.3 mm 12 mps 750 mmHg 67%
    14:00 0°C° 0.3 mm 12 mps 751 mmHg 70%
    15:00 0°C° 0.3 mm 12 mps 751 mmHg 72%
    16:00 -1°C° 0.2 mm 11 mps 752 mmHg 73%
    17:00 0°C° 0.2 mm 10 mps 753 mmHg 73%
    18:00 0°C° 0.2 mm 9 mps 753 mmHg 74%
    19:00 0°C° 0.1 mm 9 mps 754 mmHg 75%
    20:00 0°C° 0.1 mm 8 mps 754 mmHg 76%
    21:00 -1°C° 0.1 mm 7 mps 754 mmHg 77%
    22:00 -1°C° 0.3 mm 7 mps 754 mmHg 80%
    23:00 -1°C° 0.3 mm 6 mps 754 mmHg 84%

    Tomorrow, 23 February, Sunday

    Time Temperature Precipitation Wind Pressure Humidity
    00:00 -1°C° 0.3 mm 6 mps 755 mmHg 87%
    01:00 0°C° 0.8 mm 5 mps 754 mmHg 90%
    02:00 0°C° 0.8 mm 5 mps 753 mmHg 94%
    03:00 0°C° 0.8 mm 4 mps 753 mmHg 97%
    04:00 0°C° 0.6 mm 4 mps 752 mmHg 97%
    05:00 0°C° 0.6 mm 4 mps 752 mmHg 97%
    06:00 +1°C° 0.6 mm 3 mps 752 mmHg 97%
    07:00 0°C° 0.3 mm 4 mps 752 mmHg 91%
    08:00 0°C° 0.3 mm 5 mps 753 mmHg 86%
    09:00 -1°C° 0.3 mm 6 mps 753 mmHg 80%
    10:00 0°C° 0 mm 7 mps 754 mmHg 79%
    11:00 +1°C° 0 mm 8 mps 755 mmHg 78%
    12:00 +2°C° 0 mm 9 mps 756 mmHg 77%
    13:00 +2°C° 0 mm 8 mps 756 mmHg 79%
    14:00 +3°C° 0 mm 6 mps 757 mmHg 80%
    15:00 +3°C° 0 mm 5 mps 758 mmHg 82%
    16:00 +4°C° 0 mm 4 mps 759 mmHg 84%
    17:00 +3°C° 0 mm 3 mps 760 mmHg 86%
    18:00 +3°C° 0 mm 2 mps 761 mmHg 88%
    19:00 +3°C° 0 mm 2 mps 761 mmHg 89%
    20:00 +4°C° 0 mm 1 mps 761 mmHg 90%
    21:00 +4°C° 0 mm 1 mps 761 mmHg 91%
    22:00 +4°C° 0 mm 1 mps 761 mmHg 92%
    23:00 +3°C° 0 mm 2 mps 761 mmHg 92%

    Day after tomorrow, 24 February, Monday

    Time Temperature Precipitation Wind Pressure Humidity
    00:00 +3°C° 0 mm 2 mps 760 mmHg 93%
    01:00 +1°C° 1.2 mm 3 mps 758 mmHg 94%
    02:00 0°C° 1.2 mm 4 mps 756 mmHg 96%
    03:00 -1°C° 1.2 mm 5 mps 754 mmHg 97%
    04:00 -1°C° 2.9 mm 5 mps 752 mmHg 97%
    05:00 -1°C° 2.9 mm 5 mps 749 mmHg 97%
    06:00 -2°C° 2.9 mm 6 mps 747 mmHg 97%
    07:00 0°C° 0.6 mm 5 mps 745 mmHg 97%
    08:00 +1°C° 0.6 mm 4 mps 743 mmHg 98%
    09:00 +1°C° 0.6 mm 4 mps 740 mmHg 99%
    10:00 +2°C° 0.2 mm 5 mps 739 mmHg 97%
    11:00 +3°C° 0.2 mm 7 mps 738 mmHg 96%
    12:00 +3°C° 0.2 mm 9 mps 737 mmHg 94%
    13:00 +2°C° 0.1 mm 10 mps 737 mmHg 91%
    14:00 +2°C° 0.1 mm 11 mps 737 mmHg 88%
    15:00 0°C° 0.1 mm 13 mps 736 mmHg 85%
    16:00 0°C° 0.2 mm 13 mps 736 mmHg 84%
    17:00 0°C° 0.2 mm 14 mps 736 mmHg 82%
    18:00 0°C° 0.2 mm 14 mps 736 mmHg 81%
    19:00 0°C° 0.1 mm 14 mps 737 mmHg 81%
    20:00 0°C° 0.1 mm 13 mps 738 mmHg 80%
    21:00 0°C° 0.1 mm 13 mps 738 mmHg 80%
    22:00 +1°C° 0 mm 11 mps 739 mmHg 82%
    23:00 +1°C° 0 mm 10 mps 741 mmHg 84%

    25 February, Tuesday

    Time Temperature Precipitation Wind Pressure Humidity
    00:00 0°C° 0 mm 8 mps 742 mmHg 87%
    01:00 0°C° 0 mm 7 mps 742 mmHg 87%
    02:00 +1°C° 0 mm 6 mps 743 mmHg 88%
    03:00 0°C° 0 mm 5 mps 743 mmHg 89%
    04:00 0°C° 0.5 mm 5 mps 743 mmHg 90%
    05:00 0°C° 0.5 mm 5 mps 743 mmHg 92%
    06:00 0°C° 0.5 mm 5 mps 743 mmHg 94%
    07:00 0°C° 0.1 mm 5 mps 743 mmHg 95%
    08:00 0°C° 0.1 mm 4 mps 743 mmHg 95%
    09:00 +1°C° 0.1 mm 4 mps 743 mmHg 96%
    10:00 +1°C° 0.1 mm 4 mps 743 mmHg 91%
    11:00 +2°C° 0.1 mm 5 mps 743 mmHg 87%
    12:00 +2°C° 0.1 mm 5 mps 743 mmHg 83%
    13:00 +2°C° 0.2 mm 5 mps 743 mmHg 81%
    14:00 +3°C° 0.2 mm 4 mps 743 mmHg 80%
    15:00 +4°C° 0.2 mm 4 mps 742 mmHg 79%
    16:00 +3°C° 0.2 mm 4 mps 742 mmHg 82%
    17:00 +2°C° 0.2 mm 3 mps 742 mmHg 86%
    18:00 +1°C° 0.2 mm 3 mps 742 mmHg 90%
    19:00 +1°C° 0.1 mm 3 mps 742 mmHg 89%
    20:00 +1°C° 0.1 mm 3 mps 742 mmHg 88%
    21:00 +1°C° 0.1 mm 3 mps 742 mmHg 87%
    22:00 0°C° 0 mm 4 mps 743 mmHg 87%
    23:00 -1°C° 0 mm 4 mps 743 mmHg 86%

    26 February, Wednesday

    Time Temperature Precipitation Wind Pressure Humidity
    00:00 -1°C° 0 mm 4 mps 744 mmHg 85%
    01:00 -1°C° 0 mm 4 mps 744 mmHg 85%
    02:00 -1°C° 0 mm 4 mps 744 mmHg 85%
    03:00 -1°C° 0 mm 4 mps 745 mmHg 86%
    04:00 -1°C° 0 mm 4 mps 745 mmHg 85%
    05:00 0°C° 0 mm 3 mps 746 mmHg 85%
    06:00 0°C° 0 mm 3 mps 747 mmHg 85%
    07:00 0°C° 0 mm 3 mps 747 mmHg 85%
    08:00 +1°C° 0 mm 3 mps 748 mmHg 85%
    09:00 +1°C° 0 mm 3 mps 749 mmHg 85%
    10:00 +1°C° 0.1 mm 4 mps 749 mmHg 81%
    11:00 +2°C° 0.1 mm 5 mps 750 mmHg 78%
    12:00 +3°C° 0.1 mm 7 mps 751 mmHg 75%
    13:00 +3°C° 0.2 mm 7 mps 751 mmHg 74%
    14:00 +3°C° 0.2 mm 7 mps 751 mmHg 73%
    15:00 +3°C° 0.2 mm 7 mps 752 mmHg 72%
    16:00 +2°C° 0 mm 6 mps 752 mmHg 75%
    17:00 +1°C° 0 mm 5 mps 752 mmHg 78%
    18:00 0°C° 0 mm 4 mps 752 mmHg 81%
    19:00 0°C° 0 mm 3 mps 752 mmHg 82%
    20:00 0°C° 0 mm 3 mps 752 mmHg 82%
    21:00 +1°C° 0 mm 2 mps 753 mmHg 83%
    22:00 +1°C° 0 mm 2 mps 752 mmHg 85%
    23:00 +1°C° 0 mm 2 mps 751 mmHg 86%

    27 February, Thursday

    Time Temperature Precipitation Wind Pressure Humidity
    00:00 +1°C° 0 mm 2 mps 751 mmHg 88%
    01:00 +1°C° 0 mm 2 mps 750 mmHg 89%
    02:00 +1°C° 0 mm 2 mps 749 mmHg 90%
    03:00 +1°C° 0 mm 2 mps 748 mmHg 91%
    04:00 +1°C° 0.3 mm 2 mps 747 mmHg 93%
    05:00 0°C° 0.3 mm 3 mps 746 mmHg 95%
    06:00 -1°C° 0.3 mm 4 mps 745 mmHg 97%
    07:00 -1°C° 0.4 mm 4 mps 744 mmHg 96%
    08:00 -1°C° 0.4 mm 4 mps 743 mmHg 96%
    09:00 -1°C° 0.4 mm 4 mps 742 mmHg 95%
    10:00 0°C° 0.1 mm 4 mps 741 mmHg 93%
    11:00 +2°C° 0.1 mm 3 mps 741 mmHg 91%
    12:00 +3°C° 0.1 mm 2 mps 740 mmHg 89%
    13:00 +3°C° 0.2 mm 2 mps 740 mmHg 92%
    14:00 +3°C° 0.2 mm 2 mps 740 mmHg 94%
    15:00 +3°C° 0.2 mm 2 mps 739 mmHg 96%
    16:00 +2°C° 0.1 mm 3 mps 740 mmHg 94%
    17:00 +2°C° 0.1 mm 5 mps 740 mmHg 92%
    18:00 +2°C° 0.1 mm 6 mps 741 mmHg 90%
    19:00 +2°C° 0 mm 6 mps 742 mmHg 90%
    20:00 +1°C° 0 mm 6 mps 743 mmHg 89%
    21:00 0°C° 0 mm 5 mps 744 mmHg 89%
    22:00 0°C° 0 mm 5 mps 745 mmHg 89%
    23:00 0°C° 0 mm 4 mps 745 mmHg 90%
    Show more